• In Denmark
  • List of Countries
  • For 7 days
  • Water Temperature
  • Satellite Maps
  • Weather Map
  • Weather Widgets
  • user-avatar
    Login

    Hourly Weather Kerns

    Today, 20 June, Wednesday

    Time Temperature Precipitation Wind Pressure Humidity
    00:00 +13°C° 0 mm 4 mps 764 mmHg 64%
    01:00 +12°C° 0 mm 4 mps 764 mmHg 63%
    02:00 +12°C° 0 mm 4 mps 764 mmHg 65%
    03:00 +12°C° 0 mm 4 mps 764 mmHg 67%
    04:00 +12°C° 0 mm 4 mps 764 mmHg 72%
    05:00 +12°C° 0 mm 4 mps 764 mmHg 74%
    06:00 +12°C° 0 mm 4 mps 764 mmHg 76%
    07:00 +12°C° 0 mm 4 mps 764 mmHg 78%
    08:00 +15°C° 0 mm 5 mps 764 mmHg 70%
    09:00 +19°C° 0 mm 5 mps 764 mmHg 62%
    10:00 +22°C° 0 mm 5 mps 764 mmHg 54%
    11:00 +23°C° 0 mm 5 mps 764 mmHg 51%
    12:00 +25°C° 0 mm 5 mps 763 mmHg 49%
    13:00 +27°C° 0 mm 5 mps 763 mmHg 46%
    14:00 +26°C° 0 mm 5 mps 763 mmHg 49%
    15:00 +26°C° 0 mm 5 mps 762 mmHg 52%
    16:00 +25°C° 0 mm 5 mps 762 mmHg 55%
    17:00 +22°C° 0 mm 5 mps 763 mmHg 66%
    18:00 +19°C° 0 mm 4 mps 763 mmHg 77%
    19:00 +17°C° 0 mm 4 mps 763 mmHg 89%
    20:00 +15°C° 0 mm 4 mps 763 mmHg 90%
    21:00 +14°C° 0 mm 4 mps 764 mmHg 92%
    22:00 +14°C° 0 mm 4 mps 764 mmHg 93%
    23:00 +14°C° 0 mm 4 mps 764 mmHg 94%

    Tomorrow, 21 June, Thursday

    Time Temperature Precipitation Wind Pressure Humidity
    00:00 +14°C° 0 mm 4 mps 764 mmHg 94%
    01:00 +13°C° 0 mm 4 mps 764 mmHg 94%
    02:00 +13°C° 0 mm 4 mps 764 mmHg 95%
    03:00 +14°C° 0 mm 4 mps 764 mmHg 95%
    04:00 +14°C° 0 mm 4 mps 763 mmHg 96%
    05:00 +14°C° 0 mm 4 mps 763 mmHg 96%
    06:00 +13°C° 0 mm 4 mps 764 mmHg 96%
    07:00 +13°C° 0 mm 4 mps 764 mmHg 96%
    08:00 +17°C° 0 mm 4 mps 764 mmHg 86%
    09:00 +20°C° 0 mm 5 mps 764 mmHg 76%
    10:00 +22°C° 0 mm 5 mps 764 mmHg 66%
    11:00 +25°C° 0 mm 5 mps 764 mmHg 62%
    12:00 +26°C° 0 mm 5 mps 763 mmHg 58%
    13:00 +27°C° 0 mm 5 mps 763 mmHg 55%
    14:00 +26°C° 0 mm 5 mps 762 mmHg 57%
    15:00 +26°C° 0 mm 5 mps 762 mmHg 59%
    16:00 +25°C° 0 mm 5 mps 762 mmHg 62%
    17:00 +22°C° 0 mm 5 mps 762 mmHg 72%
    18:00 +20°C° 0 mm 5 mps 763 mmHg 81%
    19:00 +18°C° 0 mm 4 mps 763 mmHg 91%
    20:00 +18°C° 0 mm 4 mps 764 mmHg 92%
    21:00 +17°C° 0 mm 4 mps 764 mmHg 93%
    22:00 +17°C° 0 mm 4 mps 765 mmHg 95%
    23:00 +17°C° 0 mm 4 mps 764 mmHg 95%

    Day after tomorrow, 22 June, Friday

    Time Temperature Precipitation Wind Pressure Humidity
    00:00 +17°C° 0 mm 4 mps 764 mmHg 95%
    01:00 +17°C° 0 mm 4 mps 764 mmHg 96%
    02:00 +17°C° 0 mm 4 mps 763 mmHg 96%
    03:00 +17°C° 0 mm 4 mps 763 mmHg 96%
    04:00 +17°C° 0 mm 4 mps 762 mmHg 96%
    05:00 +16°C° 0 mm 5 mps 763 mmHg 96%
    06:00 +16°C° 0 mm 5 mps 763 mmHg 95%
    07:00 +16°C° 0 mm 5 mps 763 mmHg 95%
    08:00 +19°C° 0 mm 5 mps 763 mmHg 87%
    09:00 +21°C° 0 mm 5 mps 764 mmHg 78%
    10:00 +23°C° 0 mm 5 mps 764 mmHg 70%
    11:00 +25°C° 0 mm 5 mps 763 mmHg 66%
    12:00 +26°C° 0 mm 5 mps 763 mmHg 62%
    13:00 +27°C° 0 mm 5 mps 762 mmHg 58%
    14:00 +27°C° 0 mm 5 mps 762 mmHg 61%
    15:00 +27°C° 0 mm 5 mps 762 mmHg 63%
    16:00 +26°C° 0 mm 5 mps 761 mmHg 65%
    17:00 +23°C° 0 mm 5 mps 762 mmHg 75%
    18:00 +21°C° 0 mm 5 mps 762 mmHg 85%
    19:00 +20°C° 0 mm 4 mps 763 mmHg 95%
    20:00 +20°C° 0.1 mm 4 mps 763 mmHg 96%
    21:00 +20°C° 0.1 mm 4 mps 764 mmHg 96%
    22:00 +20°C° 0.1 mm 4 mps 764 mmHg 97%
    23:00 +20°C° 0.1 mm 4 mps 763 mmHg 97%

    23 June, Saturday

    Time Temperature Precipitation Wind Pressure Humidity
    00:00 +21°C° 0.1 mm 5 mps 763 mmHg 97%
    01:00 +21°C° 0.1 mm 5 mps 763 mmHg 97%
    02:00 +20°C° 0.1 mm 5 mps 762 mmHg 97%
    03:00 +20°C° 0.1 mm 5 mps 762 mmHg 97%
    04:00 +20°C° 0.1 mm 4 mps 762 mmHg 97%
    05:00 +20°C° 0 mm 4 mps 762 mmHg 97%
    06:00 +20°C° 0 mm 4 mps 763 mmHg 97%
    07:00 +20°C° 0 mm 4 mps 763 mmHg 98%
    08:00 +21°C° 0.1 mm 5 mps 763 mmHg 93%
    09:00 +22°C° 0.1 mm 5 mps 763 mmHg 88%
    10:00 +25°C° 0.1 mm 5 mps 764 mmHg 83%
    11:00 +25°C° 0.2 mm 5 mps 763 mmHg 81%
    12:00 +26°C° 0.2 mm 5 mps 763 mmHg 80%
    13:00 +26°C° 0.2 mm 6 mps 762 mmHg 78%
    14:00 +24°C° 0.3 mm 6 mps 762 mmHg 82%
    15:00 +23°C° 0.3 mm 6 mps 762 mmHg 86%
    16:00 +23°C° 0.3 mm 5 mps 761 mmHg 91%
    17:00 +22°C° 0.2 mm 5 mps 762 mmHg 93%
    18:00 +22°C° 0.2 mm 5 mps 762 mmHg 95%
    19:00 +21°C° 0.2 mm 5 mps 763 mmHg 97%
    20:00 +21°C° 0.3 mm 5 mps 763 mmHg 97%
    21:00 +21°C° 0.3 mm 5 mps 763 mmHg 97%
    22:00 +21°C° 0.3 mm 5 mps 764 mmHg 97%
    23:00 +21°C° 0.5 mm 6 mps 764 mmHg 97%

    24 June, Sunday

    Time Temperature Precipitation Wind Pressure Humidity
    00:00 +21°C° 0.5 mm 6 mps 763 mmHg 97%
    01:00 +21°C° 0.5 mm 6 mps 763 mmHg 96%
    02:00 +21°C° 0.3 mm 7 mps 763 mmHg 96%
    03:00 +21°C° 0.3 mm 7 mps 762 mmHg 95%
    04:00 +21°C° 0.3 mm 7 mps 762 mmHg 95%
    05:00 +21°C° 0.2 mm 7 mps 762 mmHg 95%
    06:00 +21°C° 0.2 mm 7 mps 763 mmHg 95%
    07:00 +20°C° 0.2 mm 7 mps 763 mmHg 95%
    08:00 +21°C° 0.1 mm 7 mps 763 mmHg 90%
    09:00 +22°C° 0.1 mm 7 mps 764 mmHg 86%
    10:00 +23°C° 0.1 mm 7 mps 764 mmHg 81%
    11:00 +24°C° 0.1 mm 7 mps 763 mmHg 76%
    12:00 +26°C° 0.1 mm 7 mps 763 mmHg 71%
    13:00 +27°C° 0.1 mm 7 mps 762 mmHg 66%
    14:00 +26°C° 0.1 mm 7 mps 762 mmHg 70%
    15:00 +24°C° 0.1 mm 7 mps 762 mmHg 74%
    16:00 +24°C° 0.1 mm 7 mps 762 mmHg 78%
    17:00 +23°C° 0.1 mm 7 mps 762 mmHg 83%
    18:00 +22°C° 0.1 mm 7 mps 763 mmHg 88%
    19:00 +21°C° 0.1 mm 7 mps 763 mmHg 93%
    20:00 +21°C° 0.2 mm 7 mps 764 mmHg 93%
    21:00 +21°C° 0.2 mm 7 mps 764 mmHg 93%
    22:00 +21°C° 0.2 mm 7 mps 764 mmHg 92%
    23:00 +21°C° 0.3 mm 7 mps 764 mmHg 93%

    25 June, Monday

    Time Temperature Precipitation Wind Pressure Humidity
    00:00 +21°C° 0.3 mm 7 mps 764 mmHg 93%
    01:00 +21°C° 0.3 mm 7 mps 763 mmHg 94%
    02:00 +21°C° 0.2 mm 7 mps 763 mmHg 94%
    03:00 +21°C° 0.2 mm 7 mps 763 mmHg 94%
    04:00 +21°C° 0.2 mm 7 mps 763 mmHg 95%
    05:00 +21°C° 0.2 mm 7 mps 763 mmHg 94%
    06:00 +21°C° 0.2 mm 7 mps 763 mmHg 94%
    07:00 +21°C° 0.2 mm 7 mps 764 mmHg 93%
    08:00 +22°C° 0.2 mm 7 mps 764 mmHg 90%
    09:00 +22°C° 0.2 mm 7 mps 764 mmHg 87%
    10:00 +23°C° 0.2 mm 7 mps 764 mmHg 84%
    11:00 +23°C° 0.2 mm 7 mps 764 mmHg 82%
    12:00 +24°C° 0.2 mm 7 mps 763 mmHg 80%
    13:00 +24°C° 0.2 mm 7 mps 763 mmHg 78%
    14:00 +24°C° 0.1 mm 7 mps 763 mmHg 78%
    15:00 +23°C° 0.1 mm 7 mps 763 mmHg 79%
    16:00 +23°C° 0.1 mm 7 mps 762 mmHg 80%
    17:00 +22°C° 0.1 mm 7 mps 763 mmHg 83%
    18:00 +22°C° 0.1 mm 6 mps 763 mmHg 87%
    19:00 +21°C° 0.1 mm 6 mps 764 mmHg 90%
    20:00 +21°C° 0.1 mm 6 mps 764 mmHg 91%
    21:00 +21°C° 0.1 mm 6 mps 764 mmHg 91%
    22:00 +20°C° 0.1 mm 6 mps 765 mmHg 92%
    23:00 +20°C° 0.1 mm 6 mps 764 mmHg 91%
    Show more